Flag for Germany Weather past 2 weeks in Rheda-Wiedenbrück, North Rhine-Westphalia, Germany

Now
75 °F

Scattered showers. Scattered clouds.


Feels Like: 77 °F
Forecast: 64 / 80 °F
Wind: 7 mph from East

Location: Paderborn / Lippstadt

Current Time: Jul 28, 2014 at 8:08:35 PM

Latest Report: Jul 28, 2014 at 7:20 PM


Visibility: N/A

Pressure: 29.83 "Hg

Humidity: 61%

Dew point: 61 °F

Location of Rheda-WiedenbrückLocation

Historic Weather in Rheda-Wiedenbrück — Graph

°F

Rheda-Wiedenbrück temperature yesterday

Maximum temperature yesterday: 75 °F (at 4:20 PM)
Minimum temperature yesterday: 59 °F (at 4:50 AM)
Average temperature yesterday: 69 °F

Past Weeks' High & Low Weather Summary

 TemperatureHumidityPressure
High88 °F (Jul 19, 1:50 PM)100% (Jul 14, 4:20 AM)30.21 "Hg (Jul 14, 4:20 AM)
Low54 °F (Jul 15, 3:20 AM)27% (Jul 19, 1:20 PM)29.74 "Hg (Jul 13, 6:20 PM)
Average69 °F70%30.01 "Hg
* Reported Jul 13 6:20 PM — Jul 28 6:50 PM, Rheda-Wiedenbrück, Weather by CustomWeather, © 2014

Note: Actual official high and low records may vary slightly from our data, if they occured in-between our weather recording intervals... More about our weather records

Advertising

Rheda-Wiedenbrück weather history for previous 24 hours

 ConditionsComfort  
Time TempWeatherWind HumidityBarometerVisibility
6:50 PM
Jul 28
75 °FScattered showers. Scattered clouds.13 mph57%29.83 "HgN/A
6:20 PM79 °FScattered showers. Scattered clouds.7 mph54%29.83 "HgN/A
5:50 PM79 °FSunny.9 mph51%29.83 "Hg10 mi
5:20 PM79 °FSunny.9 mph51%29.83 "Hg10 mi
4:50 PM81 °FScattered clouds.9 mph48%29.83 "HgN/A
4:20 PM79 °FScattered clouds.12 mph51%29.86 "HgN/A
3:50 PM79 °FScattered clouds.8 mph51%29.86 "HgN/A
3:20 PM81 °FScattered clouds.13 mph48%29.86 "HgN/A
2:50 PM79 °FScattered clouds.10 mph51%29.86 "HgN/A
2:20 PM79 °FScattered clouds.10 mph51%29.86 "HgN/A
1:50 PM77 °FScattered clouds.9 mph54%29.89 "HgN/A
1:20 PM79 °FPassing clouds.9 mph51%29.89 "HgN/A
12:50 PM77 °FPassing clouds.9 mph54%29.89 "HgN/A
12:20 PM77 °FClear.7 mph57%29.89 "Hg6 mi
11:50 AM75 °FClear.9 mph61%29.92 "Hg6 mi
11:20 AM73 °FClear.8 mph65%29.92 "Hg6 mi
10:50 AM72 °FClear.8 mph69%29.92 "Hg6 mi
10:20 AM72 °FClear.10 mph65%29.92 "Hg6 mi
9:50 AM72 °FClear.7 mph69%29.92 "Hg5 mi
9:20 AM68 °FScattered clouds.7 mph83%29.92 "Hg5 mi
8:50 AM68 °FScattered clouds.6 mph78%29.95 "Hg5 mi
8:20 AM66 °FScattered clouds.6 mph88%29.95 "Hg5 mi
7:50 AM64 °FClear.3 mph94%29.95 "Hg5 mi
7:20 AM61 °FClear.3 mph94%29.95 "Hg4 mi
6:50 AM63 °FSunny.5 mph94%29.95 "Hg10 mi
6:20 AM61 °FClear.2 mph94%29.95 "Hg10 mi
5:50 AM59 °FClear.3 mph94%29.95 "Hg10 mi
5:20 AM59 °FClear.2 mph94%29.95 "Hg10 mi
4:20 AM61 °FClear.2 mph94%29.95 "Hg10 mi
11:50 PM
Jul 27
63 °FClear.3 mph88%30.01 "Hg10 mi
11:20 PM64 °FClear.1 mph83%30.01 "Hg10 mi
10:50 PM64 °FClear.2 mph83%30.01 "Hg10 mi
10:20 PM66 °FSunny.1 mph78%30.01 "Hg10 mi
9:50 PM66 °FSunny.1 mph78%30.01 "Hg10 mi
9:20 PM68 °FSunny.1 mph73%30.01 "Hg10 mi
8:50 PM70 °FSunny.1 mph69%30.01 "Hg10 mi
8:20 PM73 °FSunny.2 mph61%30.01 "Hg10 mi
Weather by CustomWeather, © 2014

See weather overviewHow to use our weather pages